Location: Unspecified
(40.7945°N, 111.1337°W)
Time: 12:55:58
(UTC-06:00)

A-11 Canister half - Visible Passes

Search period start: 07 August 2020 00:00
Search period end: 17 August 2020 00:00
Orbit: 1527 x 1682 km, 47.3° (Epoch: 07 August)

Date Brightness Start Highest point End Pass type
(mag) Time Alt. Az. Time Alt. Az. Time Alt. Az.
07 Aug 10.7 22:10:24 10° W 22:17:07 21° SW 22:23:43 10° S visible
08 Aug 10.7 21:48:30 10° W 21:55:33 23° SW 22:02:29 10° S visible
09 Aug 10.7 21:26:39 10° WNW 21:34:00 24° SW 21:41:11 10° S visible
10 Aug 10.7 21:04:48 10° WNW 21:12:26 26° SW 21:19:53 10° S visible
11 Aug 10.7 20:42:59 10° WNW 20:50:50 28° SW 20:58:32 10° S visible
